TimeCDT,TemperatureF,Dew PointF,Humidity,Sea Level PressureIn,VisibilityMPH,Wind Direction,Wind SpeedMPH,Gust SpeedMPH,PrecipitationIn,Events,Conditions,WindDirDegrees,DateUTC
12:15 AM,58.8,52.7,80,30.01,10.0,Calm,Calm,-,N/A,,Clear,0,2013-09-14 05:15:00
12:35 AM,58.3,52.5,81,30.01,10.0,North,3.5,-,N/A,,Clear,360,2013-09-14 05:35:00
12:55 AM,58.3,52.5,81,30.00,10.0,North,4.6,-,N/A,,Clear,360,2013-09-14 05:55:00
1:15 AM,58.5,52.5,81,30.00,10.0,North,4.6,-,N/A,,Clear,360,2013-09-14 06:15:00
1:35 AM,58.3,52.3,81,30.00,10.0,Calm,Calm,-,N/A,,Clear,0,2013-09-14 06:35:00
1:55 AM,57.2,52.5,84,30.01,10.0,Calm,Calm,-,N/A,,Clear,0,2013-09-14 06:55:00
2:15 AM,54.7,52.0,91,30.01,10.0,Calm,Calm,-,N/A,,Clear,0,2013-09-14 07:15:00
2:35 AM,53.4,51.8,94,30.01,10.0,Calm,Calm,-,N/A,,Clear,0,2013-09-14 07:35:00
2:55 AM,52.5,51.3,95,30.01,10.0,Calm,Calm,-,N/A,,Clear,0,2013-09-14 07:55:00
3:15 AM,52.0,51.3,97,30.01,10.0,Calm,Calm,-,N/A,,Clear,0,2013-09-14 08:15:00
3:35 AM,52.7,51.6,96,30.00,10.0,Calm,Calm,-,N/A,,Clear,0,2013-09-14 08:35:00
3:55 AM,52.0,51.1,97,30.00,10.0,Calm,Calm,-,N/A,,Clear,0,2013-09-14 08:55:00
4:15 AM,51.1,50.5,98,30.00,10.0,Calm,Calm,-,N/A,,Clear,0,2013-09-14 09:15:00
4:35 AM,50.5,50.2,99,30.01,7.0,Calm,Calm,-,N/A,,Clear,0,2013-09-14 09:35:00
4:55 AM,50.4,50.0,99,30.01,10.0,Calm,Calm,-,N/A,,Clear,0,2013-09-14 09:55:00
5:15 AM,50.4,49.8,98,30.01,10.0,Calm,Calm,-,N/A,,Clear,0,2013-09-14 10:15:00
5:35 AM,50.2,49.8,99,30.01,7.0,Calm,Calm,-,N/A,,Clear,0,2013-09-14 10:35:00
5:55 AM,50.4,50.0,99,30.02,7.0,Calm,Calm,-,N/A,,Clear,0,2013-09-14 10:55:00
6:15 AM,50.9,50.5,99,30.02,10.0,Calm,Calm,-,N/A,,Clear,0,2013-09-14 11:15:00
6:35 AM,51.1,50.2,97,30.03,10.0,Calm,Calm,-,N/A,,Clear,0,2013-09-14 11:35:00
6:55 AM,50.0,49.5,98,30.04,10.0,Calm,Calm,-,N/A,,Clear,0,2013-09-14 11:55:00
7:15 AM,50.5,50.0,98,30.04,7.0,Calm,Calm,-,N/A,,Clear,0,2013-09-14 12:15:00
7:35 AM,53.1,52.0,96,30.04,10.0,Calm,Calm,-,N/A,,Clear,0,2013-09-14 12:35:00
7:55 AM,55.2,52.3,90,30.05,10.0,NNW,3.5,-,N/A,,Clear,340,2013-09-14 12:55:00
8:15 AM,56.7,52.7,87,30.05,10.0,North,3.5,-,N/A,,Clear,350,2013-09-14 13:15:00
8:55 AM,59.4,53.1,80,30.05,10.0,North,3.5,-,N/A,,Clear,10,2013-09-14 13:55:00
9:15 AM,61.2,53.2,75,30.06,10.0,North,4.6,-,N/A,,Clear,360,2013-09-14 14:15:00
9:35 AM,63.0,53.6,71,30.07,10.0,North,5.8,-,N/A,,Clear,350,2013-09-14 14:35:00
9:55 AM,64.6,53.6,68,30.06,10.0,North,5.8,-,N/A,,Clear,10,2013-09-14 14:55:00
10:15 AM,65.1,53.1,65,30.07,10.0,North,4.6,-,N/A,,Clear,350,2013-09-14 15:15:00
10:35 AM,66.4,52.2,60,30.06,10.0,NE,5.8,-,N/A,,Clear,40,2013-09-14 15:35:00
10:55 AM,67.8,51.4,56,30.07,10.0,North,4.6,-,N/A,,Clear,10,2013-09-14 15:55:00
11:15 AM,68.7,51.6,54,30.07,10.0,NNE,8.1,-,N/A,,Clear,30,2013-09-14 16:15:00
11:35 AM,69.8,52.0,53,30.06,10.0,NNE,5.8,-,N/A,,Clear,30,2013-09-14 16:35:00
11:55 AM,69.6,51.8,53,30.07,10.0,NE,6.9,-,N/A,,Clear,50,2013-09-14 16:55:00
12:15 PM,70.9,51.8,51,30.06,10.0,NNE,5.8,-,N/A,,Clear,30,2013-09-14 17:15:00
12:35 PM,71.6,52.0,50,30.06,10.0,ENE,4.6,-,N/A,,Clear,70,2013-09-14 17:35:00
12:55 PM,72.1,52.9,51,30.06,10.0,North,8.1,-,N/A,,Clear,350,2013-09-14 17:55:00
1:15 PM,72.9,53.6,51,30.06,10.0,ENE,4.6,-,N/A,,Clear,70,2013-09-14 18:15:00
1:35 PM,73.0,53.1,49,30.06,10.0,North,6.9,-,N/A,,Clear,10,2013-09-14 18:35:00
1:55 PM,73.9,53.4,49,30.05,10.0,NE,4.6,-,N/A,,Clear,40,2013-09-14 18:55:00
2:15 PM,73.9,53.4,49,30.05,10.0,Calm,Calm,-,N/A,,Clear,0,2013-09-14 19:15:00
2:35 PM,75.0,53.2,47,30.04,10.0,NE,3.5,-,N/A,,Clear,50,2013-09-14 19:35:00
2:55 PM,74.8,52.3,45,30.04,10.0,NE,3.5,-,N/A,,Clear,40,2013-09-14 19:55:00
3:15 PM,75.7,52.5,44,30.04,10.0,ENE,4.6,-,N/A,,Clear,60,2013-09-14 20:15:00
3:35 PM,75.7,52.2,44,30.04,10.0,ENE,6.9,-,N/A,,Clear,60,2013-09-14 20:35:00
3:55 PM,75.6,52.7,45,30.04,10.0,North,8.1,-,N/A,,Clear,10,2013-09-14 20:55:00
4:15 PM,75.4,53.2,46,30.03,10.0,ENE,4.6,-,N/A,,Clear,70,2013-09-14 21:15:00
4:35 PM,75.6,53.2,46,30.03,10.0,North,5.8,-,N/A,,Clear,350,2013-09-14 21:35:00
4:55 PM,75.7,52.9,45,30.04,10.0,NNE,5.8,-,N/A,,Clear,30,2013-09-14 21:55:00
5:15 PM,75.9,52.5,44,30.04,10.0,NNE,5.8,-,N/A,,Clear,20,2013-09-14 22:15:00
5:35 PM,75.6,52.5,45,30.04,10.0,North,4.6,-,N/A,,Clear,10,2013-09-14 22:35:00
5:55 PM,74.8,52.9,46,30.04,10.0,Calm,Calm,-,N/A,,Clear,0,2013-09-14 22:55:00
6:15 PM,73.6,53.8,50,30.05,10.0,North,4.6,-,N/A,,Clear,10,2013-09-14 23:15:00
6:35 PM,72.0,54.7,54,30.05,10.0,Calm,Calm,-,N/A,,Clear,0,2013-09-14 23:35:00
6:55 PM,68.2,56.7,67,30.05,10.0,Calm,Calm,-,N/A,,Clear,0,2013-09-14 23:55:00
7:15 PM,64.6,57.0,76,30.06,10.0,Calm,Calm,-,N/A,,Clear,0,2013-09-15 00:15:00
7:35 PM,62.2,56.8,82,30.06,10.0,Calm,Calm,-,N/A,,Clear,0,2013-09-15 00:35:00
7:55 PM,60.8,56.7,86,30.07,10.0,Calm,Calm,-,N/A,,Clear,0,2013-09-15 00:55:00
8:15 PM,59.5,56.8,91,30.07,10.0,Calm,Calm,-,N/A,,Clear,0,2013-09-15 01:15:00
8:35 PM,59.4,57.0,92,30.08,10.0,Calm,Calm,-,N/A,,Clear,0,2013-09-15 01:35:00
8:55 PM,58.3,56.7,94,30.08,10.0,Calm,Calm,-,N/A,,Clear,0,2013-09-15 01:55:00
9:15 PM,57.9,56.5,95,30.08,10.0,Calm,Calm,-,N/A,,Clear,0,2013-09-15 02:15:00
9:35 PM,57.4,56.1,96,30.08,10.0,Calm,Calm,-,N/A,,Clear,0,2013-09-15 02:35:00
9:55 PM,56.7,55.6,96,30.08,10.0,Calm,Calm,-,N/A,,Clear,0,2013-09-15 02:55:00
10:15 PM,56.3,55.4,97,30.08,10.0,Calm,Calm,-,N/A,,Clear,0,2013-09-15 03:15:00
10:35 PM,56.3,55.6,97,30.08,10.0,NNE,3.5,-,N/A,,Clear,30,2013-09-15 03:35:00
10:55 PM,56.1,55.6,98,30.09,10.0,Calm,Calm,-,N/A,,Clear,0,2013-09-15 03:55:00
11:15 PM,55.6,55.0,98,30.09,10.0,Calm,Calm,-,N/A,,Clear,0,2013-09-15 04:15:00
11:35 PM,55.4,55.0,99,30.09,10.0,Calm,Calm,-,N/A,,Clear,0,2013-09-15 04:35:00
11:55 PM,55.2,54.5,97,30.09,10.0,Calm,Calm,-,N/A,,Clear,0,2013-09-15 04:55:00